sat.trackr.live / text

‹ back to catalog

CANX-5

NORAD 40056 · 2014-034D

PAYLOAD ACTIVE UNKNOWN

§ Identity

Operator
Country
CA
Launch date
2014-06-30
Launch site
SRILR
Launch vehicle
Mass (kg)
RCS (m²)
0.10

Purposes: tech_demo

External: N2YO · Heavens-Above · Gunter

§ Orbital elements

Epoch: 2026-05-25T02:46:19.401312Z

Period
97.22 min
Inclination
98.3155°
Eccentricity
0.0014142
Mean motion
14.81231165 rev/d
Perigee alt
615.5 km
Apogee alt
635.3 km
Semi-major
7,003.6 km
B*
1.0168e-4
RAAN
19.6210°
Arg perigee
85.9275°
Mean anomaly
274.3552°
Rev number
63,192

§ Raw data

CANX-51 40056U 14034D   26145.11550233  .00000736  00000+0  10168-3 0  99992 40056  98.3155  19.6210 0014142  85.9275 274.3552 14.81231165631926

JSON: /api/v1/satellites/40056 · /tle

For live sub-satellite position, see the globe view (requires WebGL).

§ Visibility from observer

Set your observer location to see the next 7 days of passes ≥ 10°. The values pass through the URL so the page stays shareable.

No JS? Fill the form by hand. The geolocation button needs JavaScript.

§ Radio — SatNOGS DB

ModeDescriptionDownlinkUplink
BPSK Beacon 437.365 MHz
BPSK Telem 145.890 MHz
BPSK Telem 2.234 GHz

3 transmitters · refreshed weekly from db.satnogs.org